Regional Weather Roundup
Issued by NWS

Home | Current Version | Previous Version | Graphics & Text | Print | Product List | Glossary On
Versions: 1 2 3 4 5 6 7 8 9 10 11 12 13 14 15 16 17 18 19 20 21 22 23 24 25 26 27 28 29 30 31 32 33 34 35 36 37 38 39 40 41 42 43 44 45 46 47 48 49 50
689
ASUS43 KMKX 072321
RWRWI

WISCONSIN REGIONAL WEATHER ROUNDUP
NATIONAL WEATHER SERVICE MILWAUKEE/SULLIVAN WI
500 PM CST SUN FEB 07 2016

NOTE: "FAIR" INDICATES FEW OR NO CLOUDS BELOW 12,000 FEET WITH NO
SIGNIFICANT WEATHER AND/OR OBSTRUCTIONS TO VISIBILITY.

WIZ001-002-006>008-014>016-023>028-080000-
NORTHWEST WISCONSIN

CITY           SKY/WX    TMP DP  RH WIND       PRES   REMARKS
SUPERIOR ARPT  CLOUDY    33  28  84 NW9G16    29.55R WCI  25
ASHLAND        CLOUDY    34  33  96 SW5       29.51R WCI  30
HAYWARD        LGT SNOW  33  31  92 SW8       29.52S VSB 1   WCI  26
SIREN          LGT SNOW  32  31  94 W15G23    29.57R WCI  22
CUMBERLAND     LGT SNOW  32  32 100 W12       29.56R WCI  23
RICE LAKE      LGT RAIN  36  30  80 W9        29.58R WCI  29
CHETEK         CLOUDY    36  29  75 W6        29.58R WCI  32
LADYSMITH      CLOUDY    37  30  76 W12       29.57R WCI  29
EAU CLAIRE     CLOUDY    37  26  64 W12       29.59R WCI  29
MENOMONIE      CLOUDY    38  28  65 SW9       29.60R WCI  32
NEW RICHMOND   CLOUDY    37  29  73 W14       29.60R WCI  28
OSCEOLA        LGT RAIN  35  32  89 W14       29.63R WCI  26
$$

WIZ003>005-009-010-017-018-080000-
NORTH CENTRAL WISCONSIN

CITY           SKY/WX    TMP DP  RH WIND       PRES   REMARKS
MANITOWISH WTR LGT SNOW  33  32  97 SW9       29.50R WCI  25
ARBOR VITAE    CLOUDY    37  33  87 SW5       29.51R WCI  33
WOODRUFF       CLOUDY    37  33  87 SW5       29.51R WCI  33
RHINELANDER    CLOUDY    34  29  82 SW9       29.53R WCI  27
EAGLE RIVER    FLURRIES  33  32  96 SW3       29.51R
LAND O LAKES   LGT SNOW  33  33  98 SW3       29.51R
PHILLIPS       CLOUDY    33  31  92 SW7       29.52S WCI  27
TOMAHAWK       CLOUDY    35  28  78 SW3       29.55R
MEDFORD        CLOUDY    36  27  69 W9G18     29.55R WCI  29
MERRILL        CLOUDY    37  28  72 W8        29.56S WCI  30
$$

WIZ029-030-035-036-043>047-080000-
CENTRAL WISCONSIN

CITY           SKY/WX    TMP DP  RH WIND       PRES   REMARKS
WAUSAU         CLOUDY    39  27  62 W10       29.56R WCI  32
MOSINEE        CLOUDY    37  28  70 W9        29.59R WCI  31
MARSHFIELD     CLOUDY    38  24  57 W15       29.58R WCI  29
STEVENS POINT  CLOUDY    37  26  62 SW10G16   29.59S WCI  30
WAUPACA        CLOUDY    41  29  61 SW9       29.61R
WAUTOMA        PTCLDY    40  27  60 W9        29.63R WCI  34
WISC RAPIDS    CLOUDY    39  23  52 W10G20    29.62R WCI  32
CAMP DOUGLAS   MOCLDY    38  30  72 W17       29.63S WCI  29
$$

WIZ011>013-019>022-031-037>040-048>050-080000-
NORTHEAST WISCONSIN

CITY           SKY/WX    TMP DP  RH WIND       PRES   REMARKS
ANTIGO         CLOUDY    35  28  78 SW10      29.56R WCI  27
SHAWANO        CLOUDY    40  29  64 SW3       29.59S
OCONTO         CLOUDY    38  30  73 SW5       29.60R WCI  34
STURGEON BAY   CLOUDY    37  28  70 S7        29.63R WCI  32
GREEN BAY      CLOUDY    38  30  73 S3        29.61S
MANITOWOC      CLOUDY    40  30  67 SW6       29.64R
APPLETON       MOCLDY    37  28  70 VRB5      29.59S WCI  34
CLINTONVILLE   CLOUDY    37  28  70 SW3       29.60R
OSHKOSH        MOCLDY    39  28  64 SW8       29.62R WCI  33
$$

WIZ032>034-041-042-053>061-080000-
SOUTHWEST WISCONSIN

CITY           SKY/WX    TMP DP  RH WIND       PRES   REMARKS
LA CROSSE      CLOUDY    39  26  59 SW13      29.66S WCI  31
SPARTA         CLOUDY    38  27  64 W9        29.66R WCI  31
VIROQUA        CLOUDY    36  28  73 W15       29.66S WCI  26
BOSCOBEL       PTCLDY    40  27  59 W9        29.71S WCI  34
PRAIRIE DU CHI PTCLDY    39  26  61 W8        29.73R WCI  33
PLATTEVILLE    CLEAR     38  29  69 SW10      29.72S WCI  31
$$

WIZ056-057-062-063-064-067-068-080000-
SOUTH CENTRAL WISCONSIN

CITY           SKY/WX    TMP DP  RH WIND       PRES   REMARKS
REEDSBURG      CLEAR     37  26  65 SW10      29.66S WCI  30
BARABOO/DELLS  CLEAR     37  25  61 W12G18    29.65S WCI  29
LONE ROCK      PTCLDY    39  25  57 W15G29    29.70R WCI  31
MINERAL POINT  CLEAR     37  28  70 W14       29.70R WCI  29
MADISON        PTCLDY    38  26  62 SW8       29.67R WCI  32
MIDDLETON      CLEAR     39  28  63 SW9       29.68R WCI  33
WATERTOWN      CLEAR     38  28  69 SW10      29.67R WCI  31
MONROE         CLEAR     37  28  70 SW20      29.71S WCI  27
JANESVILLE     CLEAR     41  28  60 W13       29.71R
$$

WIZ051-052-058>065-066-070>072-080000-
SOUTHEAST WISCONSIN

CITY           SKY/WX    TMP DP  RH WIND       PRES   REMARKS
MILWAUKEE      PTCLDY    42  28  57 W18G24    29.68R
WAUKESHA       PTCLDY   N/A N/A N/A SW13      29.68R
MILWAUKEE/TIMM CLEAR     41  27  56 W9G17     29.68R
RACINE         CLEAR     42  30  62 SW10      29.70R
BURLINGTON     CLEAR     38  29  68 W9G17     29.70R WCI  32
KENOSHA        CLEAR     40  31  70 W14G23    29.69R WCI  32
FOND DU LAC    PTCLDY    39  29  67 SW8       29.64R WCI  33
SHEBOYGAN      CLOUDY    39  29  67 SW10      29.64S WCI  32
WEST BEND      PTCLDY    37  28  70 SW8       29.66R WCI  31
JUNEAU         CLEAR     37  29  73 SW12      29.67R WCI  29
$$

LSZ147-162-080000-
LAKE SUPERIOR

STATION/POSITION TIME  TEMP    WIND        PRES    WAVE
                       AIR SEA DIR/SP/G            HT/PER
                 (UTC) (F)     (DEG/KT/KT) (MB)    (FT/S)
DEVILS ISLAND    2300   34     240/ 18/ 21  999.2R
PORT WING        2200   36     230/  6/ 13  999.0R
SAXON HARBOR     2200   37                  998.6R
$$

LMZ867-665-643>646-080000-
LAKE MICHIGAN

STATION/POSITION TIME  TEMP    WIND        PRES    WAVE
                       AIR SEA DIR/SP/G            HT/PER
                 (UTC) (F)     (DEG/KT/KT) (MB)    (FT/S)
CHAMBERS ISLAND  2200   38     190/  6/ 10 1002.4R
NORTHPORT PIER   2200   40     220/  2/  7 1002.0R
KEWAUNEE LAKESHO 2200   39     220/  6/  9 1002.3R
SHEBOYGAN LAKESH 2300   41     230/  9/ 11 1004.8R
PORT WASHINGTON  2200   44     260/ 12/ 16 1005.1
MILWAUKEE LAKESH 2310   42     260/ 14/ 18   N/A
KENOSHA   LAKESH 2300   43     240/ 10/ 15 1005.8R
$$

TC  - TEMPERATURE IN CELSIUS
VSB - VISIBILITY IN STATUTE MILES
WCI - WIND CHILL INDEX
HX  - HEAT INDEX





USA.gov is the U.S. government's official web portal to all federal, state and local government web resources and services.